Location: Newark
(40.4667°N, 5.6000°W)
Time: 21:25:58
(UTC+00:00)

A-11 Canister half - Pass Details

Date: 22 November 2019
Orbit: 1526 x 1683 km, 47.3° (Epoch: 07 December)

Event Time Altitude Azimuth Distance (km) Brightness Sun altitude
Rises 17:42:41 0° 298° (WNW) 4,824 12.3 -8.3°
Reaches altitude 10° 17:45:53 10° 295° (WNW) 3,814 11.8 -8.8°
Maximum altitude 17:55:14 58° 220° (SW) 1,779 9.7 -10.5°
Drops below altitude 10° 18:04:19 10° 144° (SE) 3,700 10.8 -12.2°
Sets 18:07:23 0° 141° (SE) 4,671 11.3 -12.7°
